Location: Plymouth
(43.7490°N, 87.9770°W)
Time: 13:36:59
(UTC-05:00)

Daily predictions for brighter satellites

Satellite Brightness Start Highest point End
(mag) Time Altitude Azimuth Time Altitude Azimuth Time Altitude Azimuth
ATLAS CENTAUR R/B 3.7 19:59:12 10° WSW 20:03:44 34° NW 20:08:12 10° NNE
Iridium 4 Rocket 4.3 20:04:15 10° NNE 20:08:40 28° ENE 20:12:45 10° SE
Cosmos 1536 3.5 20:05:52 10° SSW 20:09:48 59° W 20:13:48 10° N
Meteor 1-5 Rocket 4.1 20:05:19 10° S 20:10:35 66° E 20:16:01 10° NNE
Cosmos 2082 3.8 20:05:32 10° NNW 20:11:07 62° ENE 20:16:41 10° SE
ALOS 2.3 20:07:00 10° SSE 20:11:39 73° ENE 20:16:20 10° N
Cosmos 2297 Rocket 2.5 20:06:47 10° NNW 20:12:17 49° ENE 20:17:45 10° SE
RESURS DK-1 4.1 20:15:29 10° N 20:18:25 18° NE 20:21:21 10° E
Cosmos 1934 Rocket 4.0 20:14:29 10° S 20:20:37 82° E 20:26:53 10° N
Resurs 01 Rocket 3.1 20:16:42 10° S 20:20:53 40° W 20:25:05 10° NNW
DELTA 2 R/B (1) 3.9 20:20:47 10° W 20:26:12 54° S 20:31:01 13° ESE
USA 186 1.6 20:23:19 10° SSE 20:26:32 76° ENE 20:29:33 10° N
NOSS 2-1 (D) 4.4 20:24:23 10° SW 20:28:12 51° NW 20:32:39 10° NNE
NOSS 2-1 (C) 4.4 20:25:24 10° SW 20:29:13 51° NW 20:33:41 10° NNE
Cosmos 1544 Rocket 4.0 20:25:46 10° SSW 20:30:06 67° W 20:34:32 10° N
ERS-1 Rocket 3.4 20:28:10 10° SE 20:32:54 43° ENE 20:37:39 10° N
EP 1 4.2 20:36:17 10° SW 20:38:46 77° NW 20:41:26 10° NE
Cosmos 1898 Rocket 3.9 20:34:10 10° N 20:39:18 47° ENE 20:43:27 15° SE
OTV 4 2.4 20:37:31 10° WSW 20:39:42 19° SSW 20:41:08 14° SSE
Cosmos 1743 4.2 20:40:01 17° ESE 20:41:12 20° E 20:44:05 10° NE
BREEZE-M DEB (TANK) 4.3 20:38:42 10° SW 20:42:54 68° SE 20:58:28 10° ENE
Lacrosse 5 2.4 20:39:38 10° NW 20:44:33 48° NE 20:48:07 18° ESE
Tiangong 1 0.9 20:43:07 10° W 20:46:13 75° S 20:47:55 24° E
Cosmos 1697 Rocket 3.0 20:45:58 10° S 20:51:14 42° ESE 20:56:32 10° NE
SPOT 5 3.8 20:50:57 19° ESE 20:53:42 33° ENE 20:57:59 10° N
Cosmos 1975 2.8 20:51:29 10° S 20:55:35 86° ESE 20:59:43 10° N
EO 1 Delta rocket 4.4 20:51:18 10° N 20:55:55 64° WNW 21:01:06 10° SSW
Cosmos 2278 4.1 20:50:30 10° SSW 20:56:10 69° WNW 21:01:52 10° NNE
Cosmos 468 Rocket 4.1 20:53:13 10° S 20:58:08 49° ESE 21:03:04 10° NNE
SL-24 R/B - RUBIN 2 4.3 20:55:04 10° SSW 21:00:52 68° ESE 21:07:21 10° NE
Cosmos 2173 Rocket 4.2 20:57:21 10° SSE 21:03:26 50° E 21:09:31 10° NNE
H-2A R/B 4.5 21:00:01 10° SSW 21:03:33 33° W 21:07:09 10° NNW
Lacrosse 5 rocket 1.8 21:00:01 10° WNW 21:03:35 45° SW 21:05:31 23° SSE
USA 215 4.2 21:00:24 13° E 21:05:45 39° NNE 21:11:42 10° NW
Cosmos 841 Rocket 4.5 21:05:13 24° ESE 21:05:50 25° E 21:10:01 10° NE
Cosmos 1814 Rocket 4.2 21:02:19 10° S 21:07:27 51° ESE 21:12:35 10° NNE
Cosmos 972 Rocket 4.5 21:01:48 10° NNW 21:07:39 65° ENE 21:12:04 21° SSE
Cosmos 1605 Rocket 4.5 21:01:24 10° SSW 21:07:40 64° W 21:13:54 10° N
Cosmos 2369 4.3 21:04:19 10° SW 21:09:55 60° WNW 21:15:35 10° NNE
Cosmos 1825 Rocket 3.9 21:06:34 10° N 21:10:51 47° ENE 21:12:29 31° SE
CZ-4 DEB 3.3 21:11:14 20° S 21:13:12 55° W 21:16:19 10° NNW
Cosmos 1980 Rocket 2.6 21:08:36 10° S 21:13:50 40° ESE 21:19:06 10° NE
ARGOS 4.1 21:12:12 24° E 21:14:02 30° ENE 21:18:40 10° N
Cosmos 2100 Rocket 3.9 21:09:13 10° S 21:15:26 67° E 21:21:37 10° NNE
Cosmos 2061 Rocket 4.0 21:13:12 10° S 21:19:26 66° E 21:25:38 10° NNE
Cosmos 1953 Rocket 4.0 21:16:12 10° N 21:20:28 44° ENE 21:21:30 37° ESE
H-2A R/B 1.8 21:23:39 39° SSE 21:25:06 74° ENE 21:29:15 10° N
Terra 3.6 21:28:05 16° ENE 21:28:23 16° ENE 21:31:15 10° NNE
Cosmos 1939 Rocket 3.3 21:26:45 23° S 21:29:12 62° W 21:33:21 10° NNW
Cosmos 1666 4.0 21:31:54 26° NE 21:31:54 26° NE 21:34:05 10° NNE
MetOp-B 4.2 21:28:30 34° SE 21:30:44 63° ENE 21:36:03 10° N
OAO 2 Rocket 4.2 21:28:18 10° WSW 21:32:43 31° S 21:33:01 31° S
deb Chang Zheng 4 3.5 21:32:35 10° NNE 21:37:05 83° ESE 21:39:28 27° S
Nimbus 7 Rocket 4.4 21:31:22 10° NNE 21:37:28 76° ESE 21:43:21 11° S
ASTEX 1 3.4 21:32:51 10° NNE 21:37:50 62° E 21:39:19 42° SSE
Cosmos 1758 Rocket 3.5 21:35:08 10° N 21:39:27 59° E 21:39:54 55° ESE
Meteor 1-21 4.2 21:34:32 10° N 21:40:20 80° E 21:42:53 35° SSE
Cosmos 2263 Rocket 3.7 21:36:15 10° N 21:40:30 22° NE 21:41:51 20° ENE
Cosmos 2228 4.4 21:41:51 25° ENE 21:41:51 25° ENE 21:44:15 10° NNE
Cosmos 2227 Rocket 4.1 21:36:02 10° NW 21:40:30 24° WSW 21:44:57 10° SSW
Envisat 3.4 21:37:25 21° S 21:40:43 60° W 21:45:46 10° NNW
Cosmos 1500 4.5 21:38:01 10° SSW 21:41:34 39° WNW 21:45:09 10° N
Cosmos 1656 4.3 21:38:00 10° SW 21:43:31 56° WNW 21:49:00 10° NNE
Cosmos 1937 Rocket 3.7 21:38:59 10° NNW 21:44:14 68° WSW 21:46:32 34° S
Cosmos 2322 Rocket 3.5 21:48:05 22° ENE 21:48:05 22° ENE 21:50:45 10° NE
H-2A R/B 3.0 21:48:51 30° ENE 21:48:59 30° ENE 21:53:15 10° N
Cosmos 1725 Rocket 4.1 21:47:52 41° SE 21:49:40 55° E 21:55:45 10° NNE
Cosmos 1459 Rocket 4.1 21:44:17 10° SSW 21:50:19 72° W 21:56:26 10° N
Cosmos 2084 4.5 21:46:46 10° NW 21:50:31 36° WSW 21:51:25 32° SSW
Cosmos 1340 2.8 21:49:18 10° NNW 21:53:05 67° W 21:53:19 65° WSW
Cosmos 2360 4.2 21:53:09 44° SSE 21:54:46 61° ESE 22:00:25 10° NNE
Cosmos 2297 Rocket 4.0 21:51:27 10° NW 21:56:00 26° WSW 22:00:22 11° SSW
RESURS DK-1 3.0 21:52:45 10° NW 21:56:46 48° WSW 21:57:19 45° SW
Meteor 2-9 Rocket 4.1 21:56:00 54° SE 21:56:53 62° E 22:02:14 10° NNE
Cosmos 990 Rocket 4.1 21:53:07 10° NNW 21:58:22 69° WSW 21:59:50 46° S
YAOGAN 6 3.0 22:01:27 62° W 22:01:27 62° W 22:04:57 10° NNW
Cosmos 2227 4.1 21:55:33 10° NNW 22:01:20 88° WSW 22:02:41 55° SSE
Cosmos 2098 Rocket 3.9 21:58:17 33° S 22:01:36 77° E 22:07:28 10° N
CZ-4B R/B 3.7 21:58:07 10° NNE 22:02:02 49° ENE 22:02:02 49° ENE
Cosmos 405 Rocket 4.5 21:59:39 10° N 22:01:31 22° NNE 22:01:31 22° NNE
Cosmos 2058 Rocket 3.0 22:03:28 80° ENE 22:03:28 80° ENE 22:07:55 10° N
SPOT 1/Viking Rocket 3.5 22:07:00 64° SSE 22:07:52 90° WSW 22:13:07 10° NNW
Cosmos 836 Rocket 4.5 22:11:33 66° E 22:11:33 66° E 22:16:32 10° NNE
Cosmos 1606 Rocket 4.3 22:11:06 38° SW 22:12:24 52° WNW 22:16:45 10° N
SL-19 R/B 4.0 22:08:33 10° NNE 22:14:06 89° ESE 22:15:14 58° SSW
Cosmos 2233 Rocket 4.0 22:15:54 55° E 22:16:04 55° E 22:22:08 10° NNE
Tiangong 1 4.2 22:19:38 10° W 22:19:53 12° W 22:19:53 12° W
Cosmos 1763 Rocket 3.9 22:23:19 30° SW 22:25:42 57° WNW 22:30:44 10° NNE
Lacrosse 5 2.9 22:22:49 10° WNW 22:27:19 35° SW 22:27:19 35° SW
Cosmos 1125 Rocket 3.4 22:22:27 10° NNW 22:27:33 85° N 22:27:33 85° N
BREEZE-M DEB (TANK) 4.0 22:28:16 10° WNW 22:29:28 26° W 22:29:28 26° W
SPOT 5 4.4 22:30:12 26° SW 22:31:42 31° W 22:36:01 10° NW
Cosmos 1697 Rocket 4.4 22:30:19 10° WSW 22:35:19 32° NW 22:40:21 10° N
SL-08 RB Rocket 4.3 22:39:37 54° WNW 22:39:37 54° WNW 22:43:46 10° NNW
SL-16 R/B 2.6 22:42:47 53° NE 22:42:47 53° NE 22:47:10 10° NNE
Cosmos 1375 Rocket 4.5 22:43:51 71° E 22:43:51 71° E 22:50:00 10° NE
USA 215 3.1 22:47:44 76° SE 22:48:21 89° SSW 22:54:57 10° NW
Landsat 7 4.5 22:51:08 53° NW 22:51:08 53° NW 22:55:01 10° NNW
Cosmos 1844 Rocket 4.5 22:49:20 10° N 22:53:18 19° NE 22:53:29 19° NE
ARGOS 4.1 22:53:43 39° WSW 22:54:08 39° W 22:59:10 10° NNW
Cosmos 1980 Rocket 3.7 22:52:45 10° WSW 22:57:53 34° NW 23:03:03 10° N
Cosmos 2360 Rocket 4.0 23:01:28 21° NE 23:01:28 21° NE 23:03:26 10° NE
Cosmos 1464 Rocket 4.5 23:00:29 49° NE 23:00:29 49° NE 23:05:31 10° NNE
Terra 2.8 23:06:58 44° NW 23:06:58 44° NW 23:10:22 10° NNW
BREEZE-M DEB (TANK) 4.1 22:39:39 10° WNW 23:06:23 82° SW 23:07:28 69° SSE
Meteor 2-5 Rocket 4.0 23:00:57 10° NNW 23:06:17 71° NW 23:06:17 71° NW
Cosmos 540 Rocket 4.4 23:08:30 44° N 23:08:30 44° N 23:12:06 10° NNE
Cosmos 2263 Rocket 2.9 23:19:24 10° NNW 23:23:33 49° NW 23:23:33 49° NW
BREEZE-M DEB (TANK) 4.0 23:12:38 10° WNW 23:24:48 58° WSW 23:24:48 58° WSW
H-2A R/B 3.5 23:29:29 30° WNW 23:29:29 30° WNW 23:32:49 10° NNW
Cosmos 2322 Rocket 3.1 23:29:50 44° WNW 23:29:50 44° WNW 23:35:14 10° NNE
Meteor 1-24 Rocket 4.3 23:24:04 10° N 23:28:57 60° NNW 23:28:57 60° NNW
COSMOS 2428 4.5 23:55:04 23° NE 23:55:04 23° NE 23:57:15 10° NE
